Weather History for China Lake, CA

Change the Weather History Date:

Tuesday, August 20, 2013

  Actual Average Record
Temperature  
Mean Temperature 91 °F -  
Max Temperature 108 °F 99 °F 108 °F (2010)
Min Temperature 75 °F 70 °F 57 °F (1996)
Cooling Degree Days 26    
Growing Degree Days 41 (Base 50)    
Moisture  
Dew Point 47 °F    
Average Humidity 24    
Maximum Humidity 48    
Minimum Humidity 8    
Precipitation  
Precipitation 0.00 in - - ()
Sea Level Pressure  
Sea Level Pressure 29.81 in    
Wind  
Wind Speed 7 mph (SSW)    
Max Wind Speed 17 mph    
Max Gust Speed 20 mph    
Visibility 10 miles    
Events      
Averages and records for this station are not official NWS values.
T = Trace of Precipitation, MM = Missing Value Source: NWS Daily Summary

Daily Weather History Graph

Daily Weather History Graph

Search for Another Location

Airport:

Trip Planner

Search our weather history database for the weather conditions in past years. The results will help you decide how hot, cold, wet, or windy it might be!

Date:

Astronomy

Aug. 20, 2013 Rise Set
Actual Time 6:13 AM PDT 7:33 PM PDT
Civil Twilight 5:47 AM PDT 8:00 PM PDT
Nautical Twilight 5:15 AM PDT 8:32 PM PDT
Astronomical Twilight 4:41 AM PDT 9:05 PM PDT
Moon 7:10 PM PDT (8/20) 5:48 AM PDT (8/20)
Length of Visible Light 14h 13m
Length of Day
13h 19m
Full, 100% of the Moon is Illuminated
Aug 20
Full
Aug 20
Full
Aug 28
Last Quarter
Sep 5
New
Sep 12
First Quarter

Hourly Weather History & Observations

Time (PDT) Temp. Heat Index Dew Point Humidity Pressure Visibility Wind Dir Wind Speed Gust Speed Precip Events Conditions
12:56 AM 82.0 °F 81.6 °F 55.9 °F 41% 29.84 in 10.0 mi SW 6.9 mph - N/A   Clear
1:56 AM 82.0 °F 81.3 °F 54.0 °F 38% 29.83 in 10.0 mi SW 5.8 mph - N/A   Clear
2:56 AM 81.0 °F 80.5 °F 54.0 °F 39% 29.83 in 10.0 mi WSW 3.5 mph - N/A   Clear
3:56 AM 81.0 °F 80.4 °F 53.1 °F 38% 29.82 in 10.0 mi West 5.8 mph - N/A   Clear
4:56 AM 75.9 °F - 55.0 °F 48% 29.83 in 10.0 mi SSW 8.1 mph - N/A   Clear
5:56 AM 78.1 °F - 53.1 °F 42% 29.84 in 10.0 mi WSW 6.9 mph - N/A   Clear
6:56 AM 78.1 °F - 55.0 °F 45% 29.86 in 10.0 mi SSW 3.5 mph - N/A   Clear
7:56 AM 84.0 °F 82.6 °F 54.0 °F 35% 29.86 in 10.0 mi Calm Calm - N/A   Clear
8:56 AM 91.9 °F - 51.1 °F 25% 29.86 in 10.0 mi West 6.9 mph - N/A   Partly Cloudy
9:56 AM 96.1 °F - 51.1 °F 22% 29.86 in 10.0 mi Calm Calm - N/A   Partly Cloudy
10:56 AM 99.0 °F - 52.0 °F 21% 29.86 in 10.0 mi Variable 3.5 mph - N/A   Scattered Clouds
11:56 AM 100.9 °F 98.7 °F 53.1 °F 20% 29.85 in 10.0 mi East 3.5 mph - N/A   Scattered Clouds
12:56 PM 102.9 °F 100.9 °F 53.1 °F 19% 29.83 in 10.0 mi Variable 4.6 mph - N/A   Scattered Clouds
1:56 PM 106.0 °F - 52.0 °F 17% 29.80 in 10.0 mi SSE 10.4 mph - N/A   Scattered Clouds
2:56 PM 106.0 °F - 48.0 °F 14% 29.78 in 10.0 mi Variable 6.9 mph - N/A   Scattered Clouds
3:56 PM 107.1 °F - 35.1 °F 8% 29.76 in 10.0 mi South 12.7 mph 18.4 mph N/A   Scattered Clouds
4:56 PM 106.0 °F - 43.0 °F 12% 29.75 in 10.0 mi SSE 16.1 mph 19.6 mph N/A   Scattered Clouds
5:56 PM 104.0 °F - 43.0 °F 13% 29.75 in 10.0 mi SSE 17.3 mph - N/A   Scattered Clouds
6:56 PM 102.0 °F - 35.1 °F 10% 29.75 in 10.0 mi South 12.7 mph - N/A   Partly Cloudy
7:56 PM 97.0 °F - 32.0 °F 10% 29.76 in 10.0 mi South 10.4 mph - N/A   Scattered Clouds
8:56 PM 93.9 °F - 36.0 °F 13% 29.78 in 10.0 mi SW 11.5 mph - N/A   Partly Cloudy
9:56 PM 90.0 °F - 41.0 °F 18% 29.80 in 10.0 mi SW 8.1 mph - N/A   Clear
10:56 PM 90.0 °F - 39.0 °F 17% 29.81 in 10.0 mi SSW 6.9 mph - N/A   Clear
11:56 PM 89.1 °F - 39.9 °F 18% 29.82 in 10.0 mi Calm Calm - N/A   Clear